Flag for U.S.A. Weather past 2 weeks in Little Rock, Arkansas, U.S.A.

Now
91 °F

Broken clouds.


Feels Like: 96 °F
Forecast: 75 / 92 °F
Wind: 10 mph from Southwest

Location: Adams Field

Current Time: Jul 1, 2015 at 4:23:57 PM

Latest Report: Jul 1, 2015 at 3:53 PM


Visibility: 10 mi

Pressure: 29.93 "Hg

Humidity: 49%

Dew point: 69 °F

Location of Little RockLocation

Historic Weather in Little Rock — Graph

°F

Little Rock temperature yesterday

Maximum temperature yesterday: 92 °F (at 3:53 PM)
Minimum temperature yesterday: 76 °F (at 3:53 AM)
Average temperature yesterday: 83 °F

Past Weeks' High & Low Weather Summary

 TemperatureHumidityPressure
High98 °F (Jun 24, 4:53 PM)94% (Jun 26, 8:01 PM)30.14 "Hg (Jun 26, 8:01 PM)
Low68 °F (Jun 28, 5:53 AM)34% (Jun 24, 4:53 PM)29.83 "Hg (Jun 19, 4:53 AM)
Average82 °F67%29.99 "Hg
* Reported Jun 16 2:53 PM — Jul 1 2:53 PM, Little Rock, Weather by CustomWeather, © 2015

Note: Actual official high and low records may vary slightly from our data, if they occured in-between our weather recording intervals... More about our weather records

Advertising

Little Rock weather history for previous 24 hours

 ConditionsComfort  
Time TempWeatherWind HumidityBarometerVisibility
2:53 PM
Wed, Jul 1
90 °FBroken clouds.13 mph52%29.96 "Hg10 mi
1:53 PM87 °FBroken clouds.9 mph59%29.98 "Hg10 mi
12:53 PM86 °FPartly sunny.9 mph61%30.00 "Hg10 mi
11:53 AM87 °FMore clouds than sun.7 mph59%30.01 "Hg10 mi
10:53 AM84 °FBroken clouds.10 mph65%30.00 "Hg10 mi
9:53 AM81 °FBroken clouds.7 mph69%30.00 "Hg10 mi
8:53 AM77 °FBroken clouds.13 mph79%29.97 "Hg10 mi
7:53 AM75 °FHigh level clouds.6 mph82%29.97 "Hg10 mi
6:53 AM74 °FOvercast.6 mph85%29.95 "Hg10 mi
5:53 AM74 °FPassing clouds.5 mph85%29.94 "Hg10 mi
4:53 AM75 °FClear.7 mph82%29.93 "Hg10 mi
3:53 AM77 °FClear.8 mph77%29.93 "Hg10 mi
2:53 AM78 °FClear.13 mph74%29.94 "Hg10 mi
1:53 AM78 °FPassing clouds.13 mph76%29.96 "Hg10 mi
12:53 AM80 °FPassing clouds.12 mph71%29.98 "Hg10 mi
10:53 PM
Tue, Jun 30
80 °FPassing clouds.5 mph76%29.98 "Hg10 mi
9:53 PM82 °FPassing clouds.7 mph70%29.96 "Hg10 mi
8:53 PM83 °FScattered clouds.5 mph65%29.93 "Hg10 mi
7:53 PM85 °FScattered clouds.6 mph61%29.92 "Hg10 mi
6:53 PM88 °FPassing clouds.6 mph52%29.91 "Hg10 mi
5:53 PM90 °FSunny.7 mph43%29.90 "Hg10 mi
4:53 PM91 °FPassing clouds.3 mph41%29.91 "Hg10 mi
Weather by CustomWeather, © 2015

See weather overviewHow to use our weather pages